Weather History for KPIA - November, 2014

Change the Weather History Date:

Monday, November 10, 2014

  Actual Average Record
Temperature  
Mean Temperature 57 °F 44 °F  
Max Temperature 69 °F 54 °F 73 °F (1949)
Min Temperature 45 °F 36 °F 15 °F (1973)
Degree Days  
Heating Degree Days 8 20  
Month to date heating degree days 185 185  
Since 1 July heating degree days 561 631  
Cooling Degree Days 0 0  
Month to date cooling degree days 0 0  
Year to date cooling degree days 1156 1039  
Growing Degree Days 4 (Base 50)    
Moisture  
Dew Point 41 °F    
Average Humidity 59    
Maximum Humidity 76    
Minimum Humidity 42    
Precipitation  
Precipitation 0.00 in 0.10 in 1.24 in (1995)
Month to date precipitation 0.08 1.03  
Year to date precipitation 37.55 31.97  
Snow  
Snow 0.00 in 0.00 in 0.20 in (1977)
Month to date snowfall 0.0 0.1  
Since 1 July snowfall T 0.1  
Since 1 September snowfall T 0.1  
Snow Depth 0.00 in    
Sea Level Pressure  
Sea Level Pressure 29.62 in    
Wind  
Wind Speed 15 mph (South)    
Max Wind Speed 31 mph    
Max Gust Speed 39 mph    
Visibility 10 miles    
Events      
T = Trace of Precipitation, MM = Missing Value Source: NWS Daily Summary

Daily Weather History Graph

Daily Weather History Graph

Search for Another Location

Airport or City:

Trip Planner

Search our weather history database for the weather conditions in past years. The results will help you decide how hot, cold, wet, or windy it might be!

Date:

Astronomy

Nov. 10, 2014 Rise Set
Actual Time 6:39 AM CST 4:45 PM CST
Civil Twilight 6:10 AM CST 5:14 PM CST
Nautical Twilight 5:37 AM CST 5:47 PM CST
Astronomical Twilight 5:05 AM CST 6:19 PM CST
Moon 8:12 PM CST (11/10) 10:02 AM CST (11/10)
Length of Visible Light 11h 03m
Length of Day
10h 05m
Waning Gibbous, 84% of the Moon is Illuminated
Nov 10
Waning Gibbous
Nov 14
Last Quarter
Nov 22
New
Nov 29
First Quarter
Dec 6
Full

Hourly Weather History & Observations

Time (CST) Temp. Windchill Dew Point Humidity Pressure Visibility Wind Dir Wind Speed Gust Speed Precip Events Conditions
12:54 AM 48.0 °F - 36.0 °F 63% 29.78 in 10.0 mi South 9.2 mph - N/A   Clear
1:54 AM 48.0 °F - 36.0 °F 63% 29.78 in 10.0 mi South 8.1 mph - N/A   Clear
2:54 AM 45.0 °F 41.2 °F 35.1 °F 68% 29.77 in 10.0 mi South 6.9 mph - N/A   Clear
3:54 AM 46.0 °F 41.9 °F 35.1 °F 66% 29.76 in 10.0 mi South 8.1 mph - N/A   Clear
4:54 AM 45.0 °F 40.6 °F 36.0 °F 71% 29.75 in 10.0 mi South 8.1 mph - N/A   Clear
5:54 AM 46.0 °F 42.5 °F 36.0 °F 68% 29.73 in 10.0 mi South 6.9 mph - N/A   Clear
6:54 AM 46.0 °F 41.4 °F 37.0 °F 71% 29.73 in 10.0 mi South 9.2 mph - N/A   Clear
7:54 AM 46.0 °F 40.6 °F 39.0 °F 76% 29.72 in 10.0 mi South 11.5 mph - N/A   Clear
8:54 AM 48.9 °F - 39.9 °F 71% 29.69 in 10.0 mi South 15.0 mph - N/A   Clear
9:54 AM 53.1 °F - 42.1 °F 66% 29.66 in 10.0 mi South 18.4 mph 26.5 mph N/A   Clear
10:54 AM 60.1 °F - 43.0 °F 53% 29.61 in 10.0 mi South 17.3 mph 25.3 mph N/A   Clear
11:54 AM 62.1 °F - 43.0 °F 50% 29.56 in 10.0 mi South 26.5 mph 33.4 mph N/A   Clear
12:54 PM 66.0 °F - 44.1 °F 45% 29.52 in 10.0 mi South 20.7 mph 27.6 mph N/A   Clear
1:54 PM 68.0 °F - 44.1 °F 42% 29.48 in 10.0 mi South 20.7 mph 28.8 mph N/A   Clear
2:54 PM 66.9 °F - 43.0 °F 42% 29.48 in 10.0 mi South 25.3 mph 33.4 mph N/A   Clear
3:54 PM 66.0 °F - 42.1 °F 42% 29.49 in 10.0 mi South 21.9 mph 32.2 mph N/A   Clear
4:54 PM 63.0 °F - 42.1 °F 46% 29.51 in 10.0 mi South 17.3 mph - N/A   Clear
5:54 PM 62.1 °F - 42.1 °F 48% 29.53 in 10.0 mi South 13.8 mph 24.2 mph N/A   Clear
6:54 PM 62.1 °F - 42.1 °F 48% 29.54 in 10.0 mi South 16.1 mph 25.3 mph N/A   Mostly Cloudy
7:54 PM 61.0 °F - 43.0 °F 52% 29.55 in 10.0 mi South 16.1 mph - N/A   Overcast
8:54 PM 61.0 °F - 43.0 °F 52% 29.56 in 10.0 mi South 16.1 mph 25.3 mph N/A   Overcast
9:54 PM 59.0 °F - 43.0 °F 55% 29.57 in 10.0 mi South 12.7 mph - N/A   Partly Cloudy
10:54 PM 57.9 °F - 44.1 °F 60% 29.57 in 10.0 mi SSW 11.5 mph - N/A   Mostly Cloudy
11:54 PM 59.0 °F - 44.1 °F 58% 29.59 in 10.0 mi SSW 16.1 mph - N/A   Overcast